timestamp,wind_dir_avg,wind_spd_avg,wind_spd_max_dir,wind_spd_gust,battery_voltage,lat,long
2024-04-12 00:04:00+00:00,214.0,5.23,216.0,5.86,12.41,47.59359,-54.27349
2024-04-12 00:14:01+00:00,219.0,5.46,223.0,5.89,12.25,47.59359,-54.27349
2024-04-12 00:24:01+00:00,238.0,6.09,247.0,8.84,12.25,47.59359,-54.27349
2024-04-12 00:34:01+00:00,217.0,5.25,218.0,5.95,12.25,47.59359,-54.27349
2024-04-12 00:44:01+00:00,206.0,5.07,212.0,5.49,12.25,47.59359,-54.27349
2024-04-12 00:54:01+00:00,216.0,5.33,223.0,6.13,12.25,47.59359,-54.27349
2024-04-12 01:04:01+00:00,229.0,6.6,241.0,9.51,12.25,47.59359,-54.27349
2024-04-12 01:14:00+00:00,232.0,6.07,242.0,7.75,12.17,47.59359,-54.27349
2024-04-12 01:24:00+00:00,230.0,5.49,231.0,6.29,12.17,47.59359,-54.27349
2024-04-12 01:34:00+00:00,224.0,5.16,221.0,5.86,12.17,47.59359,-54.27349
2024-04-12 01:44:00+00:00,217.0,5.51,217.0,6.4,12.17,47.59359,-54.27349
2024-04-12 01:54:00+00:00,233.0,4.28,237.0,4.91,12.17,47.59359,-54.27349
2024-04-12 02:04:00+00:00,229.0,4.77,219.0,5.42,12.17,47.59359,-54.27349
2024-04-12 02:14:01+00:00,241.0,5.87,248.0,7.83,12.17,47.59359,-54.27349
2024-04-12 02:24:01+00:00,239.0,7.11,243.0,9.03,12.17,47.59359,-54.27349
2024-04-12 02:34:01+00:00,223.0,6.15,223.0,7.04,12.17,47.59359,-54.27349
2024-04-12 02:44:01+00:00,216.0,5.14,216.0,5.76,12.17,47.59359,-54.27349
2024-04-12 02:54:01+00:00,227.0,4.38,230.0,5.07,12.17,47.59359,-54.27349
2024-04-12 03:04:01+00:00,227.0,5.88,225.0,6.6,12.17,47.59359,-54.27349
2024-04-12 03:14:00+00:00,215.0,6.11,215.0,6.92,12.17,47.59359,-54.27349
2024-04-12 03:24:00+00:00,223.0,5.49,223.0,6.11,12.17,47.59359,-54.27349
2024-04-12 03:34:00+00:00,222.0,5.52,219.0,6.67,12.17,47.59359,-54.27349
2024-04-12 03:44:00+00:00,217.0,6.41,213.0,7.03,12.17,47.59359,-54.27349
2024-04-12 03:54:00+00:00,213.0,6.02,213.0,6.4,12.17,47.59359,-54.27349
2024-04-12 04:04:00+00:00,209.0,6.24,211.0,6.94,12.17,47.59359,-54.27349
2024-04-12 04:14:00+00:00,205.0,6.26,206.0,6.8,12.09,47.59359,-54.27349
2024-04-12 04:24:00+00:00,233.0,4.43,225.0,5.48,12.09,47.59359,-54.27349
2024-04-12 04:34:00+00:00,231.0,4.28,230.0,5.17,12.09,47.59359,-54.27349
2024-04-12 04:44:00+00:00,231.0,4.5,228.0,4.87,12.09,47.59359,-54.27349
2024-04-12 04:54:00+00:00,237.0,3.85,241.0,4.74,12.09,47.59359,-54.27349
2024-04-12 05:04:00+00:00,230.0,4.51,216.0,5.43,12.09,47.59359,-54.27349
2024-04-12 05:14:00+00:00,231.0,5.47,230.0,6.15,12.09,47.59359,-54.27349
2024-04-12 05:24:00+00:00,221.0,6.35,218.0,7.61,12.09,47.59359,-54.27349
2024-04-12 05:34:00+00:00,229.0,5.9,221.0,6.71,12.09,47.59359,-54.27349
2024-04-12 05:44:00+00:00,226.0,4.9,224.0,5.71,12.09,47.59359,-54.27349
2024-04-12 05:54:00+00:00,224.0,5.73,217.0,6.71,12.09,47.59359,-54.27349
2024-04-12 06:04:00+00:00,221.0,6.0,221.0,7.12,12.09,47.59359,-54.27349
2024-04-12 06:14:01+00:00,230.0,4.25,222.0,4.7,12.09,47.59359,-54.27349
2024-04-12 06:24:01+00:00,236.0,5.69,235.0,6.42,12.09,47.59359,-54.27349
2024-04-12 06:34:01+00:00,232.0,5.72,232.0,6.18,12.09,47.59359,-54.27349
2024-04-12 06:44:01+00:00,238.0,5.22,233.0,5.73,12.09,47.59359,-54.27349
2024-04-12 06:54:01+00:00,229.0,5.27,218.0,6.59,12.09,47.59359,-54.27349
2024-04-12 07:04:01+00:00,229.0,4.63,222.0,5.15,12.09,47.59359,-54.27349
2024-04-12 07:14:01+00:00,224.0,4.9,225.0,5.81,12.09,47.59359,-54.27349
2024-04-12 07:24:01+00:00,228.0,5.16,230.0,6.07,12.09,47.59359,-54.27349
2024-04-12 07:34:01+00:00,232.0,5.82,229.0,6.58,12.09,47.59359,-54.27349
2024-04-12 07:44:01+00:00,232.0,5.65,232.0,6.49,12.09,47.59359,-54.27349
2024-04-12 07:54:01+00:00,230.0,5.75,230.0,6.63,12.09,47.59359,-54.27349
2024-04-12 08:04:01+00:00,234.0,6.63,235.0,7.45,12.09,47.59359,-54.27349
2024-04-12 08:14:00+00:00,231.0,6.39,233.0,6.84,12.01,47.59359,-54.27349
2024-04-12 08:24:00+00:00,229.0,7.02,233.0,8.59,12.01,47.59359,-54.27349
2024-04-12 08:34:00+00:00,231.0,5.79,228.0,6.73,12.01,47.59359,-54.27349
2024-04-12 08:44:00+00:00,218.0,6.77,216.0,7.42,12.01,47.59359,-54.27349
2024-04-12 08:54:00+00:00,225.0,7.29,226.0,8.51,12.01,47.59359,-54.27349
2024-04-12 09:04:00+00:00,227.0,6.35,222.0,8.03,12.01,47.59359,-54.27349
2024-04-12 09:14:00+00:00,225.0,6.28,219.0,7.4,12.01,47.59359,-54.27349
2024-04-12 09:24:00+00:00,232.0,6.95,229.0,8.09,12.01,47.59359,-54.27349
2024-04-12 09:34:00+00:00,231.0,6.05,224.0,6.9,12.01,47.59359,-54.27349
2024-04-12 09:44:00+00:00,230.0,6.05,229.0,6.8,12.01,47.59359,-54.27349
2024-04-12 09:54:00+00:00,228.0,6.13,223.0,7.17,12.01,47.59359,-54.27349
2024-04-12 10:04:00+00:00,224.0,6.08,220.0,6.81,12.01,47.59359,-54.27349
2024-04-12 10:14:01+00:00,227.0,6.7,228.0,7.42,13.37,47.59359,-54.27349
2024-04-12 10:24:01+00:00,229.0,7.38,230.0,8.78,13.37,47.59359,-54.27349
2024-04-12 10:34:01+00:00,230.0,7.13,244.0,8.96,13.37,47.59359,-54.27349
2024-04-12 10:44:01+00:00,225.0,6.76,221.0,7.53,13.37,47.59359,-54.27349
2024-04-12 10:54:01+00:00,224.0,6.89,230.0,7.9,13.37,47.59359,-54.27349
2024-04-12 11:04:01+00:00,225.0,6.12,222.0,7.42,13.37,47.59359,-54.27349
2024-04-12 11:14:00+00:00,233.0,6.24,239.0,7.55,13.84,47.59359,-54.27349
2024-04-12 11:24:00+00:00,233.0,6.68,239.0,7.68,13.84,47.59359,-54.27349
2024-04-12 11:34:00+00:00,229.0,5.62,221.0,6.98,13.84,47.59359,-54.27349
2024-04-12 11:44:00+00:00,228.0,5.39,225.0,6.42,13.84,47.59359,-54.27349
2024-04-12 11:54:00+00:00,224.0,6.29,224.0,7.44,13.84,47.59359,-54.27349
2024-04-12 12:04:00+00:00,213.0,6.96,213.0,7.62,13.84,47.59359,-54.27349
2024-04-12 12:14:00+00:00,216.0,6.46,217.0,7.43,14.4,47.59359,-54.27349
2024-04-12 12:24:00+00:00,210.0,7.47,209.0,8.43,14.4,47.59359,-54.27349
2024-04-12 12:34:00+00:00,209.0,9.08,212.0,10.24,14.4,47.59359,-54.27349
2024-04-12 12:44:00+00:00,207.0,9.02,210.0,10.34,14.4,47.59359,-54.27349
2024-04-12 12:54:00+00:00,204.0,9.86,206.0,11.14,14.4,47.59359,-54.27349
2024-04-12 13:04:00+00:00,206.0,10.23,205.0,11.92,14.4,47.59359,-54.27349
2024-04-12 13:14:00+00:00,207.0,10.48,207.0,12.06,14.4,47.59359,-54.27349
2024-04-12 13:24:00+00:00,205.0,10.64,200.0,12.34,14.4,47.59359,-54.27349
2024-04-12 13:34:00+00:00,201.0,11.67,201.0,12.86,14.4,47.59359,-54.27349
2024-04-12 13:44:00+00:00,202.0,10.32,209.0,11.4,14.4,47.59359,-54.27349
2024-04-12 13:54:00+00:00,203.0,10.89,200.0,12.46,14.4,47.59359,-54.27349
2024-04-12 14:04:00+00:00,204.0,11.65,208.0,12.83,14.4,47.59359,-54.27349
2024-04-12 14:14:01+00:00,205.0,12.77,209.0,15.11,14.32,47.59359,-54.27349
2024-04-12 14:24:01+00:00,203.0,12.03,207.0,14.15,14.32,47.59359,-54.27349
2024-04-12 14:34:01+00:00,208.0,13.03,208.0,14.75,14.32,47.59359,-54.27349
2024-04-12 14:44:01+00:00,210.0,11.61,203.0,12.84,14.32,47.59359,-54.27349
2024-04-12 14:54:01+00:00,212.0,13.44,220.0,15.93,14.32,47.59359,-54.27349
2024-04-12 15:04:01+00:00,208.0,13.15,214.0,15.25,14.32,47.59359,-54.27349
2024-04-12 15:14:01+00:00,211.0,13.37,211.0,15.34,14.32,47.59359,-54.27349
2024-04-12 15:24:01+00:00,212.0,14.18,221.0,17.92,14.32,47.59359,-54.27349
2024-04-12 15:34:01+00:00,209.0,12.88,210.0,14.77,14.32,47.59359,-54.27349
2024-04-12 15:44:01+00:00,215.0,13.38,215.0,16.26,14.32,47.59359,-54.27349
2024-04-12 15:54:01+00:00,214.0,14.08,225.0,16.83,14.32,47.59359,-54.27349
2024-04-12 16:04:01+00:00,208.0,12.38,209.0,14.75,14.32,47.59359,-54.27349
2024-04-12 16:14:01+00:00,211.0,11.5,220.0,13.51,13.68,47.59359,-54.27349
2024-04-12 16:24:01+00:00,210.0,11.3,209.0,12.75,13.68,47.59359,-54.27349
2024-04-12 16:34:01+00:00,213.0,13.31,222.0,16.46,13.68,47.59359,-54.27349
2024-04-12 16:44:01+00:00,214.0,13.53,220.0,16.49,13.68,47.59359,-54.27349
2024-04-12 16:54:01+00:00,215.0,13.35,222.0,15.95,13.68,47.59359,-54.27349
2024-04-12 17:04:01+00:00,216.0,13.28,221.0,15.75,13.68,47.59359,-54.27349
2024-04-12 17:14:00+00:00,215.0,12.55,218.0,14.75,14.32,47.59359,-54.27349
2024-04-12 17:24:00+00:00,214.0,13.31,221.0,14.81,14.32,47.59359,-54.27349
2024-04-12 17:34:00+00:00,211.0,12.03,211.0,13.45,14.32,47.59359,-54.27349
2024-04-12 17:44:00+00:00,212.0,11.66,214.0,13.29,14.32,47.59359,-54.27349
2024-04-12 17:54:00+00:00,210.0,11.48,209.0,13.09,14.32,47.59359,-54.27349
2024-04-12 18:04:00+00:00,214.0,12.86,216.0,15.34,14.32,47.59359,-54.27349
2024-04-12 18:14:00+00:00,211.0,11.59,215.0,14.12,14.32,47.59359,-54.27349
2024-04-12 18:24:00+00:00,207.0,12.11,216.0,14.67,14.32,47.59359,-54.27349
2024-04-12 18:34:00+00:00,211.0,12.75,217.0,14.42,14.32,47.59359,-54.27349
2024-04-12 18:44:00+00:00,207.0,10.95,213.0,12.44,14.32,47.59359,-54.27349
2024-04-12 18:54:00+00:00,208.0,11.32,210.0,12.84,14.32,47.59359,-54.27349
2024-04-12 19:04:00+00:00,206.0,11.06,207.0,12.96,14.32,47.59359,-54.27349
2024-04-12 19:14:00+00:00,210.0,10.16,212.0,11.41,13.44,47.59359,-54.27349
2024-04-12 19:24:00+00:00,208.0,10.76,209.0,11.87,13.44,47.59359,-54.27349
2024-04-12 19:34:00+00:00,211.0,10.06,207.0,12.3,13.44,47.59359,-54.27349
2024-04-12 19:44:00+00:00,217.0,9.94,222.0,11.35,13.44,47.59359,-54.27349
2024-04-12 19:54:00+00:00,211.0,12.38,208.0,13.84,13.44,47.59359,-54.27349
2024-04-12 20:04:00+00:00,213.0,12.03,213.0,13.75,13.44,47.59359,-54.27349
2024-04-12 20:14:00+00:00,215.0,11.74,207.0,13.7,13.6,47.59359,-54.27349
2024-04-12 20:24:00+00:00,213.0,11.21,208.0,13.13,13.6,47.59359,-54.27349
2024-04-12 20:34:00+00:00,214.0,10.97,214.0,12.22,13.6,47.59359,-54.27349
2024-04-12 20:44:00+00:00,215.0,10.68,223.0,12.09,13.6,47.59359,-54.27349
2024-04-12 20:54:00+00:00,214.0,11.18,215.0,12.73,13.6,47.59359,-54.27349
2024-04-12 21:04:00+00:00,217.0,11.78,219.0,13.85,13.6,47.59359,-54.27349
2024-04-12 21:14:00+00:00,217.0,11.39,218.0,12.17,13.44,47.59359,-54.27349
2024-04-12 21:24:00+00:00,219.0,10.71,220.0,11.87,13.44,47.59359,-54.27349
2024-04-12 21:34:00+00:00,217.0,10.37,223.0,11.63,13.44,47.59359,-54.27349
2024-04-12 21:44:00+00:00,215.0,10.53,215.0,12.21,13.44,47.59359,-54.27349
2024-04-12 21:54:00+00:00,212.0,9.57,214.0,11.36,13.44,47.59359,-54.27349
2024-04-12 22:04:00+00:00,209.0,9.55,216.0,11.01,13.44,47.59359,-54.27349
2024-04-12 22:14:00+00:00,220.0,8.96,226.0,11.54,12.81,47.59359,-54.27349
2024-04-12 22:24:00+00:00,218.0,10.49,215.0,12.98,12.81,47.59359,-54.27349
2024-04-12 22:34:00+00:00,205.0,8.56,199.0,9.7,12.81,47.59359,-54.27349
2024-04-12 22:44:00+00:00,201.0,7.69,206.0,8.75,12.81,47.59359,-54.27349
2024-04-12 22:54:00+00:00,208.0,8.49,223.0,11.08,12.81,47.59359,-54.27349
2024-04-12 23:04:00+00:00,218.0,8.52,228.0,10.71,12.81,47.59359,-54.27349
2024-04-12 23:14:01+00:00,216.0,9.9,225.0,12.07,12.33,47.59359,-54.27349
2024-04-12 23:24:01+00:00,218.0,10.44,219.0,12.27,12.33,47.59359,-54.27349
2024-04-12 23:34:01+00:00,221.0,9.76,224.0,11.73,12.33,47.59359,-54.27349
2024-04-12 23:44:01+00:00,220.0,10.72,228.0,12.1,12.33,47.59359,-54.27349
2024-04-12 23:54:01+00:00,222.0,9.75,222.0,11.96,12.33,47.59359,-54.27349
